Location: Favalello
(42.2939°N, 9.2706°E)
Time: 16:51:41
(UTC+00:00)

Okean-O - Pass Details

Date: 06 December 2019
Orbit: 639 x 640 km, 98.2° (Epoch: 28 January)

Event Time Altitude Azimuth Distance (km) Brightness Sun altitude
Rises 17:11:28 0° 166° (SSE) 2,931 6.1 -14.5°
Reaches altitude 10° 17:13:39 10° 166° (SSE) 2,026 5.2 -14.9°
Maximum altitude 17:18:04 88° 256° (WSW) 647 2.6 -15.7°
Drops below altitude 10° 17:22:32 10° 346° (NNW) 2,042 5.2 -16.5°
Sets 17:24:45 0° 347° (NNW) 2,956 6.0 -16.9°
